STARLINK-11620, 63271

Orbit data source: Space-Track

STARLINK-11620, 63271 is a payload satellite owned by SpaceX/Seattle (US) in LEO that was launched on Sat, 15 Mar 2025 UTC via an FALCON 9 launch vehicle from the Air Force Eastern Test Range (AFETR). Payload-class satellites include a variety of spacecraft equipped with specific instruments for various scientific and technological missions. These include communications satellites like Starlink; space stations such as the ISS; scientific satellites like the Hubble; Earth observation satellites from companies like Planet Labs, Umbra, and HawkEye 360; GPS; miniature CubeSats for education and research; and military/defense satellites.

Loading next visibility...
Identifier
63271, 2025-053G
Orbit
LEO
Country
Flag of USUS
Related business
Manufacturer
SpaceX/Seattle
Mission
Operational Commercial Communications
Bus & Motor
STARLINK V2MD, Unknown motor
Mass
960 kg wet, ~910 kg dry
Launch date (UTC)
2025-03-15 (1 year ago)
Launch vehicle
FALCON 9
Launch site
Air Force Eastern Test Range (AFETR)
Object type
Payload
Rocket body
Debris
Shape & HBR
Box + 2 Pan, 18.1 m
Radar Cross Section
36.964 m², Large (>1 m²)

Expand to show TLE details & history
Last TLE update: 16 hours ago

TLE from 16 hours ago
0 STARLINK-11620
1 63271U 25053G   26171.17789582  .00180861  00000-0  13836-2 0  9995
2 63271  42.9988 214.8728 0002710 282.5603  77.4962 15.70820493 73788
Epoch: 2026-06-20T04:16Z
TLE epoch observation values (Epoch: 2026-06-20T04:16:10.198Z)
Latitude
Longitude
-117.56594°
Altitude
355.927 km
Speed
7.698 km/s
True Right ascension
14h 19m 29s
True Declination
0° 00' 00"
Sunlit
Object was in full shadow at epoch
Visualization orbit readout
Latitude
Unknown
Longitude
Unknown
Altitude
Unknown
Speed
Unknown
Apparent Right ascension
Unknown
Apparent Declination
Unknown
Sunlit
N/A
Visualization observer readout
Local Sidereal Time
07:12:03
Azimuth
Unknown
Elevation
Unknown
Doppler factor
Unknown
Orbital elements
Apogee altitude
360.358 km
Perigee altitude
356.707 km
Semi-major axis
6,736.67 km
Eccentricity
0.00027
Inclination
42.9988°
RAAN
214.8728°
Arg. of periapsis
282.5603°
True anomaly
77.52652°
Mean anomaly
77.4962°
Eccentric anomaly
77.51136°
Mean motion
3.92532 °/min
Orbital period
91.71 mins
BSTAR
0.0013836
Loading maneuver chart data...
Computing Atmospheric mass density...
Loading historical data...
Loading historical data...
Loading historical data...
Loading historical data...
Loading historical data...
Loading historical data...
Loading historical data...

Documentation

Showing up to 5 results
|